EW4120 Weather Reports


time (UTC)temp
C
wind
direction
speed
KPH
gust
KPH
rain 1hr
cm
rain 24hr
cm
rain mn
cm
humidity
%
barometer
mb
20260502211517 17 0.0 3.2 0.00 0.00 0.00 45 1011.2
20260502210537 16 0.0 3.2 0.00 0.00 0.00 45 1011.1
20260502205658 16 0.0 3.2 0.00 0.00 0.00 47 1011.2
20260502204517 16 180 1.6 8.0 0.00 0.00 0.00 47 1011.3
20260502203517 16 0.0 4.8 0.00 0.00 0.00 50 1011.3
20260502202517 15 0.0 3.2 0.00 0.00 0.00 50 1011.4
20260502201517 15 180 1.6 4.8 0.00 0.00 0.00 45 1011.5
20260502200537 15 180 1.6 6.4 0.00 0.00 0.00 47 1011.6
20260502195537 15 0.0 1.6 0.00 0.00 0.00 47 1012.0
20260502194517 15 180 1.6 6.4 0.00 0.00 0.00 43 1012.1
20260502193517 15 0.0 4.8 0.00 0.00 0.00 48 1012.2
20260502192537 15 180 1.6 6.4 0.00 0.00 0.00 48 1012.3
20260502191517 15 180 1.6 8.0 0.00 0.00 0.00 46 1012.4
20260502190517 15 180 1.6 4.8 0.00 0.00 0.00 49 1012.4
20260502185617 14 180 3.2 9.7 0.00 0.00 0.00 46 1012.6
20260502184517 13 180 1.6 4.8 0.00 0.00 0.00 52 1012.7
20260502183517 13 0.0 3.2 0.00 0.00 0.00 53 1012.8
20260502182517 13 0.0 3.2 0.00 0.00 0.00 52 1012.7
20260502181517 13 0.0 3.2 0.00 0.00 0.00 52 1012.7
20260502180537 13 180 1.6 4.8 0.00 0.00 0.00 51 1012.5
20260502170517 12 180 1.6 11.3 0.00 0.00 0.00 54 1013.1
20260502163537 12 180 1.6 4.8 0.00 0.00 0.00 54 1013.7
20260502162537 12 180 1.6 6.4 0.00 0.00 0.00 57 1013.9
20260502161537 12 180 1.6 6.4 0.00 0.00 0.00 60 1013.8
20260502160516 -17 0.0 0.0 0.00 0.00 0.00
20260502152016 -17 0.0 0.0 0.00 0.00 0.00
20260502151016 -17 0.0 0.0 0.00 0.00 0.00
20260502150534 -17 0.0 0.0 0.00 0.00 0.00
20260502123722 -17 0.0 0.0 0.00 0.00 0.00
20260502123111 -17 0.0 0.0 0.00 0.00 0.00
20260502122056 -17 0.0 0.0 0.00 0.00 0.00
20260502121148 -17 0.0 0.0 0.00 0.00 0.00
20260502120602 -17 0.0 0.0 0.00 0.00 0.00
20260502115536 -17 0.0 0.0 0.00 0.00 0.00
20260502114549 -17 0.0 0.0 0.00 0.00 0.00
20260502114043 -17 0.0 0.0 0.00 0.00 0.00
20260502113516 -17 0.0 0.0 0.00 0.00 0.00
20260502112556 -17 0.0 0.0 0.00 0.00 0.00
20260502112014 -17 0.0 0.0 0.00 0.00 0.00 78
20260502111522 -17 45 3.2 9.7 0.00 0.00 0.00 78
20260502110616 11 0.0 4.8 0.00 0.00 0.00 80 1013.0
20260502105516 11 0.0 4.8 0.00 0.00 0.00 82 1013.1
20260502104516 11 0.0 1.6 0.00 0.00 0.00 86 1012.9
20260502103516 11 0.0 0.0 0.00 0.00 0.00 88 1012.9
20260502102516 10 0.0 1.6 0.00 0.00 0.00 89 1013.2
20260502101516 10 0.0 0.0 0.00 0.00 0.00 91 1013.2
20260502100536 10 0.0 0.0 0.00 0.00 0.00 90 1013.3
20260502091516 10 0.0 0.0 0.00 0.00 0.00 94 1013.6
20260502090536 10 0.0 0.0 0.00 0.00 0.00 94 1013.4
20260502071516 10 0.0 0.0 0.00 0.00 0.00 92 1012.2
20260502070556 10 0.0 0.0 0.00 0.00 0.00 92 1012.3
20260502065516 10 0.0 0.0 0.00 0.00 0.00 92 1012.3
20260502064536 10 0.0 0.0 0.00 0.00 0.00 92 1012.4
20260502063515 10 0.0 0.0 0.00 0.00 0.00 92 1012.6
20260502062618 11 0.0 0.0 0.00 0.00 0.00 92 1012.8
20260502060517 10 0.0 1.6 0.00 0.00 0.00 93 1012.9
20260502055517 10 0.0 3.2 0.00 0.00 0.00 94 1012.9
20260502054557 9 0.0 0.0 0.00 0.00 0.00 93 1012.4
20260502053537 9 0.0 0.0 0.00 0.00 0.00 93 1012.4
20260502052537 9 0.0 0.0 0.00 0.00 0.00 92 1012.3
20260502051557 9 0.0 0.0 0.00 0.00 0.00 93 1012.3
20260502050517 9 0.0 0.0 0.00 0.00 0.00 92 1012.5
20260502045537 9 0.0 0.0 0.00 0.00 0.00 92 1012.5
20260502044658 9 0.0 0.0 0.00 0.00 0.00 91 1012.6
20260502043517 9 0.0 0.0 0.00 0.00 0.00 91 1012.6
20260502042517 9 0.0 0.0 0.00 0.00 0.00 91 1012.5
20260502041517 10 0.0 0.0 0.00 0.00 0.00 91 1012.5
20260502040537 10 0.0 0.0 0.00 0.00 0.00 90 1012.6
20260502035516 10 0.0 0.0 0.00 0.00 0.00 90 1012.7
20260502034536 10 0.0 0.0 0.00 0.00 0.00 89 1012.7
20260502033536 10 0.0 0.0 0.00 0.00 0.00 89 1012.9
20260502032516 10 0.0 0.0 0.00 0.00 0.00 88 1012.8
20260502031516 10 0.0 0.0 0.00 0.00 0.00 88 1012.9
20260502030536 11 0.0 0.0 0.00 0.00 0.00 87 1012.9
20260502025556 11 0.0 0.0 0.00 0.00 0.00 87 1012.9
20260502024516 11 0.0 0.0 0.00 0.00 0.00 86 1013.0
20260502023516 11 0.0 0.0 0.00 0.00 0.00 85 1012.9
20260502022516 11 0.0 0.0 0.00 0.00 0.00 85 1012.9
20260502021516 12 0.0 0.0 0.00 0.00 0.00 84 1013.0
20260502020516 12 0.0 1.6 0.00 0.00 0.00 84 1012.9
20260502015515 12 0.0 0.0 0.00 0.00 0.00 84
20260502014518 12 0.0 0.0 0.00 0.00 0.00 83
20260502013538 12 0.0 4.8 0.00 0.00 0.00 83
20260502012517 13 0.0 0.0 0.00 0.00 0.00 81
20260502011558 13 293 1.6 4.8 0.00 0.00 0.00 81
20260502010517 13 0.0 0.0 0.00 0.00 0.00 80
20260502005538 13 0.0 6.4 0.00 0.00 0.00 79
20260502004517 13 0.0 1.6 0.00 0.00 0.00 78
20260502003517 14 0.0 6.4 0.00 0.00 0.00 77
20260502002558 14 0.0 4.8 0.00 0.00 0.00 76
20260502001557 14 0.0 4.8 0.00 0.00 0.00 75
20260502000658 14 0.0 4.8 0.00 0.00 0.00 74
20260501235517 15 315 1.6 3.2 0.00 0.00 0.00 72
20260501234618 15 293 1.6 6.4 0.00 0.00 0.00 70
20260501233517 16 315 1.6 9.7 0.00 0.00 0.00 68
20260501232517 16 315 1.6 11.3 0.00 0.00 0.00 66
20260501231537 17 315 1.6 6.4 0.00 0.00 0.00 64
20260501230558 17 315 1.6 8.0 0.00 0.00 0.00 61
20260501225537 18 293 1.6 6.4 0.00 0.00 0.00 60
20260501224517 18 315 1.6 9.7 0.00 0.00 0.00 60
20260501223517 19 315 1.6 8.0 0.00 0.00 0.00 58
20260501222657 20 315 1.6 9.7 0.00 0.00 0.00 56
20260501221517 20 315 1.6 6.4 0.00 0.00 0.00 58
20260501220517 20 315 1.6 4.8 0.00 0.00 0.00 58
20260501215657 20 315 1.6 9.7 0.00 0.00 0.00 57
20260501214658 20 315 1.6 6.4 0.00 0.00 0.00 56
20260501213517 20 315 1.6 6.4 0.00 0.00 0.00 57
20260501212517 20 113 1.6 6.4 0.00 0.00 0.00 57